This is the latest recevied weather packets stored in our database for station/object KW4UJ. If no packets are shown the sender has not sent any weather packets the latest 10 day(s).
| Time | Temp. | Humidity | Pressure | Rain* | Wind** | Luminosity | Snow |
|---|---|---|---|---|---|---|---|
| 1788201960 | 30° C | 68% | 1019 hPa | 0 mm | - | 213 W/m² | - |
| 1788201656 | 30.56° C | 68% | 1019.1 hPa | 0 mm | - | 265 W/m² | - |
| 1788201354 | 30° C | 69% | 1019.1 hPa | 0 mm | - | 341 W/m² | - |
| 1788201049 | 30° C | 69% | 1019.2 hPa | 0 mm | - | 301 W/m² | - |
| 1788200749 | 30° C | 70% | 1019.3 hPa | 0 mm | - | 301 W/m² | - |
| 1788200444 | 30.56° C | 68% | 1019.1 hPa | 0 mm | - | 226 W/m² | - |
| 1788200144 | 31.11° C | 68% | 1019 hPa | 0 mm | - | 240 W/m² | - |
| 1788199844 | 31.11° C | 66% | 1019.1 hPa | 0 mm | - | 328 W/m² | - |
| 1788199539 | 31.11° C | 68% | 1019.1 hPa | 0 mm | - | 420 W/m² | - |
| 1788199234 | 30.56° C | 67% | 1018.9 hPa | 0 mm | - | 589 W/m² | - |
| 1788198930 | 30.56° C | 67% | 1019.2 hPa | 0 mm | - | 692 W/m² | - |
| 1788198626 | 30° C | 69% | 1019.3 hPa | 0 mm | - | 341 W/m² | - |
| 1788198321 | 29.44° C | 71% | 1019.2 hPa | 0 mm | - | 382 W/m² | - |
| 1788198021 | 29.44° C | 69% | 1019.1 hPa | 0 mm | - | 352 W/m² | - |
| 1788197719 | 28.89° C | 71% | 1019.3 hPa | 0 mm | - | 712 W/m² | - |
| 1788197416 | 28.89° C | 73% | 1019.2 hPa | 0 mm | - | 282 W/m² | - |
| 1788197110 | 28.89° C | 72% | 1019.7 hPa | 0 mm | - | 352 W/m² | - |
| 1788196805 | 28.89° C | 75% | 1019.4 hPa | 0 mm | - | 263 W/m² | - |
| 1788196501 | 28.89° C | 76% | 1019.5 hPa | 0 mm | - | 225 W/m² | - |
| 1788196198 | 28.89° C | 76% | 1019.4 hPa | 0 mm | - | 230 W/m² | - |
| 1788195894 | 29.44° C | 74% | 1019.4 hPa | 0 mm | - | 283 W/m² | - |
| 1788195591 | 29.44° C | 74% | 1019.5 hPa | 0 mm | - | 544 W/m² | - |
| 1788195286 | 28.89° C | 76% | 1019.7 hPa | 0 mm | - | 586 W/m² | - |
| 1788194983 | 28.33° C | 77% | 1019.8 hPa | 0 mm | - | 325 W/m² | - |
| 1788194679 | 28.33° C | 77% | 1020 hPa | 0 mm | - | 218 W/m² | - |
* Rain latest hour (hover to see other rain measurements)
** Current wind speed in m/s (hover to see current wind gust speed)